カタログに戻る

COSMOS 886 DEB

運用中UNKNOWN
NORAD 9722·DEBRIS·🇷🇺 Russia

打ち上げ Dec 27, 1976 から Baikonur Cosmodrome

Loading…

次のパス (今後24時間)

TLE

最新Source: Space-Track

元期: Sep 14, 2026, 05:17 UTC

1 09722U 76126T   26257.22025442  .00001170  00000-0  23651-2 0  9993
2 09722  65.7544 189.9838 0783573   6.2234 354.7838 12.55279544248151

AllMySatでCOSMOS 886 DEBをリアルタイム追跡

Download on the App Store